Location: Comstock Ranch
(38.0499°N, 120.2627°W)
Time: 20:44:26
(UTC+00:00)

IRAS Rocket - Visible Passes

Search period start: 03 December 2024 00:00
Search period end: 13 December 2024 00:00
Orbit: 846 x 876 km, 100.1° (Epoch: 03 December)

Date Brightness Start Highest point End Pass type
(mag) Time Alt. Az. Time Alt. Az. Time Alt. Az.
03 Dec 6.6 11:12:59 10° NE 11:20:45 - SE 11:16:46 18° E visible
03 Dec 4.2 12:52:20 10° N 12:57:48 57° WNW 13:03:16 10° SSW visible
04 Dec 6.8 11:04:48 10° ENE 11:11:49 - SE 11:07:39 15° E visible
04 Dec 4.1 12:43:27 10° N 12:49:01 69° WNW 12:54:35 10° SSW visible
05 Dec 7.1 10:56:59 10° ENE 11:02:51 - SE 10:58:35 12° E visible
05 Dec 4.1 12:34:36 10° NNE 12:40:14 83° WNW 12:45:51 10° SSW visible
05 Dec 5.9 14:18:23 10° NW 14:20:05 11° WNW 14:21:46 10° WNW visible
06 Dec 4.2 12:25:47 10° NNE 12:31:25 83° ESE 12:37:03 10° SSW visible
06 Dec 5.8 14:08:41 10° NNW 14:11:25 14° WNW 14:13:55 11° W visible
07 Dec 4.4 12:16:59 10° NNE 12:22:36 69° ESE 12:28:11 10° S visible
07 Dec 5.6 13:59:19 10° NNW 14:02:44 17° WNW 14:04:50 14° W visible
08 Dec 4.8 12:08:15 10° NNE 12:18:14 16° S 12:19:16 10° S visible
08 Dec 5.4 13:50:06 10° NNW 13:54:02 20° WNW 13:55:47 17° W visible
09 Dec 5.2 11:59:32 10° NNE 12:09:16 15° S 12:10:18 10° S visible
09 Dec 5.2 13:40:58 10° NNW 13:45:20 24° WNW 13:46:44 22° W visible
10 Dec 7.5 01:10:55 10° WSW 01:12:16 11° W 01:13:37 10° WNW visible
10 Dec 5.5 11:50:52 10° NNE 12:00:20 15° SSE 12:01:15 10° SSE visible
10 Dec 5.0 13:31:54 10° N 13:36:37 28° WNW 13:37:41 27° W visible
11 Dec 5.9 11:42:14 10° NE 11:51:23 13° SSE 11:52:08 10° SSE visible
11 Dec 4.8 13:22:53 10° N 13:27:52 34° WNW 13:28:38 33° W visible
12 Dec 6.2 11:33:41 10° NE 11:42:26 12° SSE 11:42:55 10° SSE visible
12 Dec 4.6 13:13:54 10° N 13:19:07 41° WNW 13:19:36 40° W visible
